Flag for Canada Weather past 2 weeks in Kamloops, British Columbia, Canada

Now
45 °F

Clear.


Feels Like: 45 °F
Forecast: 44 / 74 °F
Wind: 2 mph from North

Location: Kamloops

Current Time: May 4, 2015 at 3:21:13 AM

Latest Report: May 4, 2015 at 3:00 AM


Visibility: 40 mi

Pressure: 29.88 "Hg

Humidity: 53%

Dew point: 28 °F

Location of KamloopsLocation

Historic Weather in Kamloops — Graph

°F

Kamloops temperature yesterday

Maximum temperature yesterday: 70 °F (at 4:00 PM)
Minimum temperature yesterday: 36 °F (at 5:00 AM)
Average temperature yesterday: 52 °F

Past Weeks' High & Low Weather Summary

 TemperatureHumidityPressure
High77 °F (Apr 20, 5:00 PM)93% (Apr 24, 12:00 AM)30.33 "Hg (Apr 24, 12:00 AM)
Low34 °F (Apr 23, 6:00 AM)17% (May 3, 4:00 PM)29.63 "Hg (Apr 23, 7:00 PM)
Average53 °F49%29.97 "Hg
* Reported Apr 19 2:00 AM — May 4 2:00 AM, Kamloops, Weather by CustomWeather, © 2015

Note: Actual official high and low records may vary slightly from our data, if they occured in-between our weather recording intervals... More about our weather records

Advertising

Kamloops weather history for previous 24 hours

 ConditionsComfort  
Time TempWeatherWind HumidityBarometerVisibility
2:00 AM
Mon, May 4
45 °FClear.9 mph49%29.87 "Hg40 mi
1:00 AM45 °FPassing clouds.8 mph53%29.88 "Hg40 mi
12:00 AM50 °FPassing clouds.10 mph40%29.87 "Hg40 mi
11:00 PM
Sun, May 3
52 °FPassing clouds.7 mph38%29.87 "Hg40 mi
10:00 PM57 °FPassing clouds.5 mph29%29.87 "Hg40 mi
9:00 PM57 °FPartly sunny.5 mph31%29.87 "Hg40 mi
8:00 PM63 °FPartly sunny.8 mph27%29.85 "Hg40 mi
7:00 PM64 °FPartly sunny.15 mph22%29.85 "Hg40 mi
6:00 PM66 °FPartly sunny.14 mph22%29.86 "Hg40 mi
5:00 PM68 °FPartly sunny.13 mph21%29.88 "Hg40 mi
4:00 PM70 °FPartly sunny.13 mph17%29.90 "Hg40 mi
3:00 PM68 °FPartly sunny.12 mph20%29.93 "Hg40 mi
2:00 PM66 °FPartly sunny.12 mph19%29.96 "Hg40 mi
1:00 PM63 °FPartly sunny.10 mph24%30.00 "Hg40 mi
12:00 PM57 °FPassing clouds.12 mph33%30.04 "Hg40 mi
11:00 AM54 °FSunny.9 mph35%30.08 "Hg40 mi
10:00 AM50 °FSunny.9 mph40%30.11 "Hg40 mi
9:00 AM46 °FSunny.9 mph46%30.13 "Hg40 mi
8:00 AM41 °FSunny.7 mph57%30.15 "Hg40 mi
7:00 AM39 °FSunny.9 mph65%30.14 "Hg40 mi
6:00 AM36 °FPassing clouds.5 mph65%30.14 "Hg40 mi
5:00 AM36 °FPassing clouds.7 mph70%30.12 "Hg40 mi
4:00 AM39 °FPassing clouds.3 mph61%30.11 "Hg40 mi
3:00 AM39 °FPassing clouds.3 mph52%30.10 "Hg40 mi
Weather by CustomWeather, © 2015

See weather overviewHow to use our weather pages